This is the latest recevied weather packets stored in our database for station/object K5GTX. If no packets are shown the sender has not sent any weather packets the latest 10 day(s).
| Time | Temp. | Humidity | Pressure | Rain* | Wind** | Luminosity | Snow |
|---|---|---|---|---|---|---|---|
| 1777314617 | 32.22° C | 99% | 1014 hPa | 0 mm | - | 662 W/m² | - |
| 1777314314 | 32.22° C | 99% | 1014 hPa | 0 mm | - | 701 W/m² | - |
| 1777314011 | 32.22° C | 99% | 1014.1 hPa | 0 mm | - | 656 W/m² | - |
| 1777313709 | 31.67° C | 99% | 1014.2 hPa | 0 mm | - | 703 W/m² | - |
| 1777313406 | 31.67° C | 99% | 1014.1 hPa | 0 mm | - | 670 W/m² | - |
| 1777313103 | 31.67° C | 99% | 1014.1 hPa | 0 mm | - | 666 W/m² | - |
| 1777312798 | 31.11° C | 99% | 1014.3 hPa | 0 mm | - | 676 W/m² | - |
| 1777312496 | 31.11° C | 99% | 1014.3 hPa | 0 mm | - | 661 W/m² | - |
| 1777312192 | 31.11° C | 99% | 1014.1 hPa | 0 mm | - | 691 W/m² | - |
| 1777311890 | 31.11° C | 99% | 1014.2 hPa | 0 mm | - | 688 W/m² | - |
| 1777311587 | 31.11° C | 99% | 1014.3 hPa | 0 mm | - | 667 W/m² | - |
| 1777311284 | 30.56° C | 99% | 1014.4 hPa | 0 mm | - | 574 W/m² | - |
| 1777310982 | 30° C | 99% | 1014.1 hPa | 0 mm | - | 630 W/m² | - |
| 1777310680 | 30.56° C | 99% | 1014.1 hPa | 0 mm | - | 593 W/m² | - |
| 1777310376 | 30.56° C | 99% | 1014.2 hPa | 0 mm | - | 585 W/m² | - |
| 1777310073 | 29.44° C | 99% | 1014.2 hPa | 0 mm | - | 595 W/m² | - |
| 1777309772 | 30° C | 99% | 1014.3 hPa | 0 mm | - | 608 W/m² | - |
| 1777309469 | 30° C | 99% | 1014.5 hPa | 0 mm | - | 601 W/m² | - |
| 1777309165 | 30° C | 99% | 1014.5 hPa | 0 mm | - | 580 W/m² | - |
| 1777308864 | 29.44° C | 99% | 1014.6 hPa | 0 mm | - | 581 W/m² | - |
| 1777308559 | 28.89° C | 99% | 1014.6 hPa | 0 mm | - | 601 W/m² | - |
| 1777308255 | 29.44° C | 99% | 1014.5 hPa | 0 mm | - | 336 W/m² | - |
| 1777307950 | 28.89° C | 99% | 1014.7 hPa | 0 mm | - | 527 W/m² | - |
| 1777307649 | 28.89° C | 99% | 1014.8 hPa | 0 mm | - | 314 W/m² | - |
| 1777307345 | 29.44° C | 99% | 1014.3 hPa | 0 mm | - | 544 W/m² | - |
* Rain latest hour (hover to see other rain measurements)
** Current wind speed in m/s (hover to see current wind gust speed)